PDT3390 KIAH-KDFW

Flight info

Callsign PDT3390
Flight time 0h 41m
Altitude 27000
Route BLTWY7 CRIED WHINY4
Aircraft E145/M-L/S

Departure

Time 2026-05-07 02:54
Airport George Bush Intercontinental Airport (KIAH)

Arrival

Time 2026-05-07 03:35
Airport Dallas Fort Worth International Airport (KDFW)
Time Latitude Longitude Altitude Speed Heading
2026-05-07 02:18 29.98570 -95.35210 104 ft 0 kts 107°
2026-05-07 02:41 29.98570 -95.35209 104 ft 0 kts 107°
2026-05-07 02:41 29.98570 -95.35210 104 ft 0 kts 107°
2026-05-07 02:42 29.98574 -95.35225 104 ft 2 kts 107°
2026-05-07 02:42 29.98579 -95.35242 104 ft 2 kts 107°
2026-05-07 02:42 29.98583 -95.35259 104 ft 2 kts 107°
2026-05-07 02:42 29.98590 -95.35273 104 ft 2 kts 145°
2026-05-07 02:43 29.98604 -95.35278 104 ft 2 kts 184°
2026-05-07 02:43 29.98610 -95.35278 104 ft 0 kts 183°
2026-05-07 02:48 29.98594 -95.35278 104 ft 7 kts 181°
2026-05-07 02:48 29.98518 -95.35276 104 ft 12 kts 177°
2026-05-07 02:48 29.98435 -95.35238 104 ft 12 kts 164°
2026-05-07 02:48 29.98365 -95.35287 104 ft 13 kts 232°
2026-05-07 02:49 29.98294 -95.35270 104 ft 13 kts 148°
2026-05-07 02:49 29.98177 -95.35201 104 ft 22 kts 154°
2026-05-07 02:49 29.98034 -95.35113 104 ft 23 kts 152°
2026-05-07 02:49 29.97878 -95.35016 104 ft 25 kts 152°
2026-05-07 02:50 29.97734 -95.34929 104 ft 21 kts 153°
2026-05-07 02:50 29.97594 -95.34838 104 ft 23 kts 153°
2026-05-07 02:50 29.97439 -95.34749 104 ft 25 kts 150°
2026-05-07 02:50 29.97275 -95.34650 103 ft 27 kts 155°
2026-05-07 02:51 29.97106 -95.34538 103 ft 28 kts 147°
2026-05-07 02:51 29.96927 -95.34437 103 ft 23 kts 152°
2026-05-07 02:51 29.96790 -95.34347 103 ft 23 kts 154°
2026-05-07 02:51 29.96638 -95.34257 103 ft 25 kts 152°
2026-05-07 02:52 29.96479 -95.34159 103 ft 26 kts 152°
2026-05-07 02:52 29.96309 -95.34056 103 ft 28 kts 151°
2026-05-07 02:52 29.96149 -95.33958 103 ft 16 kts 154°
2026-05-07 02:52 29.96053 -95.33908 103 ft 12 kts 181°
2026-05-07 02:53 29.96003 -95.33974 103 ft 11 kts 243°
2026-05-07 02:53 29.95971 -95.34055 103 ft 8 kts 268°
2026-05-07 02:53 29.96028 -95.34098 103 ft 17 kts 331°
2026-05-07 02:53 29.96327 -95.34291 103 ft 83 kts 335°
2026-05-07 02:54 29.97045 -95.34722 130 ft 139 kts 333°
2026-05-07 02:54 29.97902 -95.35274 679 ft 144 kts 333°
2026-05-07 02:54 29.98805 -95.35857 1413 ft 145 kts 332°
2026-05-07 02:54 29.99698 -95.36380 2043 ft 148 kts 343°
2026-05-07 02:55 30.00791 -95.36575 2375 ft 170 kts 359°
2026-05-07 02:55 30.02111 -95.36666 2726 ft 199 kts 355°
2026-05-07 02:55 30.03579 -95.36867 3145 ft 223 kts 352°
2026-05-07 02:55 30.05242 -95.37170 3647 ft 244 kts 351°
2026-05-07 02:56 30.06988 -95.37494 4195 ft 259 kts 349°
2026-05-07 02:56 30.08779 -95.37836 5099 ft 258 kts 349°
2026-05-07 02:56 30.10572 -95.38176 5891 ft 262 kts 348°
2026-05-07 02:56 30.12447 -95.38529 6657 ft 267 kts 348°
2026-05-07 02:57 30.14325 -95.38883 7427 ft 270 kts 348°
2026-05-07 02:57 30.16198 -95.39236 8164 ft 273 kts 347°
2026-05-07 02:57 30.18145 -95.39603 8908 ft 276 kts 347°
2026-05-07 02:57 30.20057 -95.39964 9604 ft 279 kts 347°
2026-05-07 02:58 30.22023 -95.40335 10284 ft 284 kts 346°
2026-05-07 02:58 30.24002 -95.40710 10790 ft 294 kts 345°
2026-05-07 02:58 30.26123 -95.41111 11198 ft 308 kts 345°
2026-05-07 02:58 30.28325 -95.41527 11636 ft 319 kts 345°
2026-05-07 02:59 30.30586 -95.41968 12076 ft 328 kts 343°
2026-05-07 02:59 30.32943 -95.42553 12538 ft 336 kts 342°
2026-05-07 02:59 30.35256 -95.43117 13114 ft 339 kts 341°
2026-05-07 02:59 30.37627 -95.43695 13716 ft 342 kts 341°
2026-05-07 03:00 30.40030 -95.44282 14282 ft 345 kts 341°
2026-05-07 03:00 30.42447 -95.44872 14813 ft 349 kts 341°
2026-05-07 03:00 30.44879 -95.45466 15399 ft 351 kts 341°
2026-05-07 03:00 30.47285 -95.46055 15921 ft 355 kts 341°
2026-05-07 03:01 30.49790 -95.46666 16472 ft 357 kts 341°
2026-05-07 03:01 30.52255 -95.47236 16949 ft 361 kts 342°
2026-05-07 03:01 30.54763 -95.47800 17442 ft 364 kts 341°
2026-05-07 03:01 30.57295 -95.48370 17966 ft 366 kts 341°
2026-05-07 03:02 30.59828 -95.48941 18567 ft 364 kts 341°
2026-05-07 03:02 30.62355 -95.49330 19117 ft 367 kts 344°
2026-05-07 03:02 30.64819 -95.49967 19593 ft 362 kts 338°
2026-05-07 03:02 30.67304 -95.50592 20194 ft 361 kts 339°
2026-05-07 03:03 30.69816 -95.51184 20732 ft 361 kts 339°
2026-05-07 03:03 30.72276 -95.51749 21287 ft 360 kts 339°
2026-05-07 03:03 30.74769 -95.52317 21811 ft 360 kts 339°
2026-05-07 03:03 30.77224 -95.52875 22295 ft 360 kts 338°
2026-05-07 03:04 30.79712 -95.53439 22816 ft 359 kts 338°
2026-05-07 03:04 30.82180 -95.53998 23357 ft 357 kts 338°
2026-05-07 03:04 30.84624 -95.54552 23845 ft 357 kts 338°
2026-05-07 03:04 30.87074 -95.55109 24338 ft 355 kts 337°
2026-05-07 03:05 30.89511 -95.55662 24834 ft 355 kts 337°
2026-05-07 03:05 30.91960 -95.56220 25270 ft 355 kts 338°
2026-05-07 03:05 30.94375 -95.56768 25780 ft 353 kts 337°
2026-05-07 03:05 30.96825 -95.57325 26286 ft 351 kts 337°
2026-05-07 03:06 30.99245 -95.57876 26704 ft 351 kts 337°
2026-05-07 03:06 31.01667 -95.58431 26984 ft 358 kts 337°
2026-05-07 03:06 31.04150 -95.58999 27000 ft 370 kts 337°
2026-05-07 03:06 31.06773 -95.59597 27008 ft 380 kts 338°
2026-05-07 03:07 31.09410 -95.60198 27005 ft 389 kts 338°
2026-05-07 03:07 31.12208 -95.60836 26991 ft 397 kts 338°
2026-05-07 03:07 31.15071 -95.61489 26985 ft 405 kts 339°
2026-05-07 03:07 31.17957 -95.62148 26983 ft 412 kts 339°
2026-05-07 03:08 31.20941 -95.62830 26984 ft 419 kts 339°
2026-05-07 03:08 31.23975 -95.63524 26978 ft 425 kts 339°
2026-05-07 03:08 31.26954 -95.64284 26980 ft 425 kts 335°
2026-05-07 03:08 31.29962 -95.64978 26978 ft 441 kts 343°
2026-05-07 03:09 31.33175 -95.65369 26996 ft 449 kts 346°
2026-05-07 03:09 31.36368 -95.65821 27533 ft 425 kts 336°
2026-05-07 03:09 31.39189 -95.66751 28028 ft 414 kts 329°
2026-05-07 03:09 31.41898 -95.68159 28018 ft 411 kts 323°
2026-05-07 03:10 31.46757 -95.71755 28000 ft 409 kts 314°
2026-05-07 03:10 31.51424 -95.75687 28003 ft 415 kts 314°
2026-05-07 03:11 31.56191 -95.79755 28009 ft 422 kts 314°
2026-05-07 03:11 31.60950 -95.83826 28007 ft 423 kts 313°
2026-05-07 03:12 31.65749 -95.87938 28002 ft 423 kts 314°
2026-05-07 03:12 31.70558 -95.91942 27638 ft 431 kts 319°
2026-05-07 03:13 31.73223 -95.93707 27075 ft 435 kts 321°
2026-05-07 03:13 31.75858 -95.95466 26506 ft 434 kts 321°
2026-05-07 03:13 31.78465 -95.97211 25945 ft 428 kts 321°
2026-05-07 03:13 31.81061 -95.98954 25361 ft 420 kts 321°
2026-05-07 03:14 31.83553 -96.00626 24737 ft 407 kts 321°
2026-05-07 03:14 31.85940 -96.02306 24114 ft 393 kts 319°
2026-05-07 03:14 31.90563 -96.05647 22902 ft 382 kts 319°
2026-05-07 03:15 31.92808 -96.07267 22306 ft 377 kts 320°
2026-05-07 03:15 31.95057 -96.08890 21993 ft 372 kts 319°
2026-05-07 03:15 31.97263 -96.10484 22001 ft 369 kts 319°
2026-05-07 03:15 31.99442 -96.12058 22006 ft 366 kts 319°
2026-05-07 03:16 32.01618 -96.13633 21779 ft 370 kts 319°
2026-05-07 03:16 32.03857 -96.15255 21374 ft 378 kts 319°
2026-05-07 03:16 32.06106 -96.16882 20939 ft 383 kts 320°
2026-05-07 03:16 32.08381 -96.18527 20461 ft 379 kts 319°
2026-05-07 03:17 32.10626 -96.20152 19968 ft 373 kts 319°
2026-05-07 03:17 32.12942 -96.21831 19452 ft 368 kts 319°
2026-05-07 03:17 32.15139 -96.23425 18960 ft 366 kts 319°
2026-05-07 03:17 32.17283 -96.24983 18420 ft 366 kts 320°
2026-05-07 03:18 32.19477 -96.26576 17800 ft 363 kts 320°
2026-05-07 03:18 32.21607 -96.28123 17197 ft 360 kts 320°
2026-05-07 03:18 32.23732 -96.29669 16596 ft 357 kts 320°
2026-05-07 03:18 32.25857 -96.31214 15978 ft 353 kts 320°
2026-05-07 03:19 32.27869 -96.32835 15399 ft 339 kts 310°
2026-05-07 03:19 32.29471 -96.34809 14928 ft 329 kts 306°
2026-05-07 03:19 32.31035 -96.36790 14445 ft 327 kts 306°
2026-05-07 03:19 32.32665 -96.38677 13964 ft 329 kts 313°
2026-05-07 03:20 32.34417 -96.40417 13469 ft 325 kts 313°
2026-05-07 03:20 32.36111 -96.42110 12981 ft 314 kts 313°
2026-05-07 03:20 32.37745 -96.43748 12497 ft 305 kts 313°
2026-05-07 03:20 32.39036 -96.45639 11977 ft 288 kts 295°
2026-05-07 03:21 32.40004 -96.47697 11453 ft 282 kts 295°
2026-05-07 03:21 32.40947 -96.49697 11078 ft 272 kts 295°
2026-05-07 03:21 32.41862 -96.51641 10695 ft 266 kts 295°
2026-05-07 03:21 32.42753 -96.53541 10153 ft 265 kts 295°
2026-05-07 03:22 32.43641 -96.55434 9708 ft 260 kts 296°
2026-05-07 03:22 32.44511 -96.57284 9331 ft 255 kts 296°
2026-05-07 03:22 32.45367 -96.59108 8957 ft 250 kts 296°
2026-05-07 03:22 32.46201 -96.60887 8587 ft 248 kts 296°
2026-05-07 03:23 32.47047 -96.62694 8212 ft 250 kts 296°
2026-05-07 03:23 32.47895 -96.64502 7909 ft 249 kts 297°
2026-05-07 03:23 32.48750 -96.66328 7647 ft 245 kts 296°
2026-05-07 03:23 32.49278 -96.68203 7376 ft 236 kts 275°
2026-05-07 03:24 32.49389 -96.70135 7041 ft 235 kts 274°
2026-05-07 03:24 32.49487 -96.72070 6605 ft 237 kts 274°
2026-05-07 03:24 32.49580 -96.74046 6174 ft 238 kts 274°
2026-05-07 03:24 32.49661 -96.76008 5833 ft 239 kts 274°
2026-05-07 03:25 32.49732 -96.77989 5493 ft 241 kts 274°
2026-05-07 03:25 32.49794 -96.79987 5257 ft 245 kts 274°
2026-05-07 03:25 32.49915 -96.82005 4998 ft 244 kts 285°
2026-05-07 03:25 32.50732 -96.83705 4770 ft 239 kts 315°
2026-05-07 03:26 32.51953 -96.85062 4468 ft 240 kts 318°
2026-05-07 03:26 32.53169 -96.86435 4089 ft 239 kts 315°
2026-05-07 03:26 32.54000 -96.88118 3724 ft 242 kts 294°
2026-05-07 03:26 32.54613 -96.89986 3492 ft 233 kts 302°
2026-05-07 03:27 32.55654 -96.91282 3497 ft 216 kts 328°
2026-05-07 03:27 32.56918 -96.92295 3493 ft 213 kts 329°
2026-05-07 03:27 32.58134 -96.93274 3344 ft 211 kts 328°
2026-05-07 03:27 32.59352 -96.94265 3251 ft 210 kts 329°
2026-05-07 03:28 32.60557 -96.95258 3105 ft 206 kts 329°
2026-05-07 03:28 32.61706 -96.96210 2986 ft 198 kts 329°
2026-05-07 03:28 32.62816 -96.97137 2981 ft 191 kts 329°
2026-05-07 03:28 32.63896 -96.98050 2988 ft 190 kts 329°
2026-05-07 03:29 32.64960 -96.98954 2985 ft 184 kts 329°
2026-05-07 03:29 32.66009 -96.99842 2985 ft 180 kts 329°
2026-05-07 03:29 32.67044 -97.00711 2990 ft 180 kts 329°
2026-05-07 03:29 32.68070 -97.01577 2989 ft 180 kts 329°
2026-05-07 03:30 32.69156 -97.02267 2991 ft 171 kts 351°
2026-05-07 03:30 32.70319 -97.02477 2993 ft 169 kts 356°
2026-05-07 03:30 32.71505 -97.02593 2994 ft 169 kts 359°
2026-05-07 03:30 32.72689 -97.02647 2992 ft 170 kts
2026-05-07 03:31 32.73894 -97.02669 2992 ft 171 kts
2026-05-07 03:31 32.75109 -97.02675 2997 ft 172 kts
2026-05-07 03:31 32.76307 -97.02674 2870 ft 170 kts
2026-05-07 03:31 32.77476 -97.02671 2651 ft 166 kts
2026-05-07 03:32 32.78635 -97.02665 2429 ft 163 kts
2026-05-07 03:32 32.79684 -97.02662 2239 ft 139 kts
2026-05-07 03:32 32.80583 -97.02658 2037 ft 119 kts
2026-05-07 03:32 32.81405 -97.02652 1889 ft 117 kts
2026-05-07 03:33 32.82243 -97.02646 1740 ft 120 kts
2026-05-07 03:33 32.83087 -97.02641 1578 ft 124 kts
2026-05-07 03:33 32.83952 -97.02638 1406 ft 122 kts
2026-05-07 03:33 32.84815 -97.02632 1245 ft 125 kts
2026-05-07 03:34 32.85682 -97.02628 1076 ft 121 kts
2026-05-07 03:34 32.86558 -97.02621 917 ft 128 kts
2026-05-07 03:34 32.87459 -97.02621 734 ft 129 kts
2026-05-07 03:34 32.88346 -97.02618 614 ft 120 kts
2026-05-07 03:35 32.89071 -97.02613 612 ft 87 kts 360°
2026-05-07 03:35 32.89601 -97.02608 612 ft 63 kts
2026-05-07 03:35 32.89983 -97.02608 612 ft 47 kts
2026-05-07 03:35 32.90276 -97.02605 612 ft 36 kts
2026-05-07 03:36 32.90527 -97.02602 612 ft 35 kts
2026-05-07 03:36 32.90768 -97.02599 612 ft 33 kts
2026-05-07 03:36 32.90889 -97.02625 612 ft 14 kts 317°
2026-05-07 03:36 32.90902 -97.02750 612 ft 17 kts 269°
2026-05-07 03:37 32.90902 -97.02902 612 ft 19 kts 270°
2026-05-07 03:37 32.90903 -97.03073 612 ft 21 kts 270°
2026-05-07 03:37 32.90905 -97.03265 612 ft 24 kts 272°
2026-05-07 03:37 32.90904 -97.03471 612 ft 26 kts 268°
2026-05-07 03:38 32.90907 -97.03688 622 ft 23 kts 270°
2026-05-07 03:38 32.90908 -97.03851 639 ft 16 kts 268°
2026-05-07 03:38 32.90909 -97.03988 640 ft 17 kts 267°
2026-05-07 03:38 32.90909 -97.04144 640 ft 19 kts 271°
2026-05-07 03:39 32.90911 -97.04326 627 ft 21 kts 269°
2026-05-07 03:39 32.90911 -97.04476 612 ft 14 kts 270°
2026-05-07 03:39 32.90902 -97.04569 612 ft 11 kts 234°
2026-05-07 03:39 32.90831 -97.04592 612 ft 10 kts 196°
2026-05-07 03:40 32.90776 -97.04647 612 ft 10 kts 216°
2026-05-07 03:40 32.90710 -97.04668 612 ft 9 kts 182°
2026-05-07 03:40 32.90661 -97.04636 612 ft 8 kts 106°
2026-05-07 03:40 32.90619 -97.04610 612 ft 7 kts 207°
2026-05-07 03:41 32.90572 -97.04604 612 ft 6 kts 140°
2026-05-07 03:41 32.90556 -97.04575 612 ft 0 kts 111°
2026-05-07 03:41 32.90554 -97.04568 612 ft 1 kts 110°
2026-05-07 03:41 32.90551 -97.04560 612 ft 0 kts 110°
2026-05-07 03:42 32.90545 -97.04564 612 ft 0 kts 110°